TIME,DELAY(SENSOR),PRES,T(CTD),SAL,OXYGEN,RAWTEMP,T(OPTODE),TCPHASE,FLUOR,BETA(BETA700),BETA(BETA412),BETA(BETA440),CDOM,C(CSC),ED(ED412.40),ED(ED444.00),ED(ED489.70),ED(ED554.30),LU(LU411.80),LU(LU443.40),LU(LU489.60),LU(LU554.10),COMP,TILTX,TILTX(TILTY),CHECK
1336339201,5806,497.9299926757812500,6.9742999076843260,34.1638984680175800,78.4607391357421900,587.6448974609375000,6.9826622009277340,48.9132499694824200,52,110,86,80,83,15277,2147749979,2147421412,2148004708,2147874230,2147630509,2147079296,2148245942,2147209097,2052,4,13,58947
1336339356,5811,486.7200012207031000,7.2248997688293460,34.1521987915039060,91.2883911132812500,580.6544189453125000,7.2074470520019530,47.3344993591308600,51,110,92,80,79,15279,2147748406,2147421513,2147999378,2147872475,2147631021,2147087250,2148246052,2147206253,2279,4,13,23712
1336339498,5810,475.2999877929687500,7.5496001243591310,34.1385993957519500,103.5561981201171900,570.2694091796875000,7.5405712127685550,45.8540191650390600,51,112,91,82,79,15277,2147749065,2147420992,2148003145,2147874688,2147629449,2147086921,2148239277,2147205485,2863,4,13,59461
1336339631,5808,462.5799865722656000,7.7648000717163090,34.1394004821777340,112.1585998535156200,563.8856811523438000,7.7448749542236330,44.8779983520507800,50,110,88,82,79,15277,2147745005,2147419849,2147999085,2147873874,2147628333,2147086774,2148238820,2147204525,1208,4,13,28124
1336339729,5808,451.6000061035156000,7.9629998207092285,34.1370010375976560,117.1147994995117200,557.5615234375000000,7.9469261169433590,44.2859001159668000,51,109,90,81,78,15277,2147746523,2147419977,2147999515,2147874523,2147622253,2147088338,2148233883,2147203849,1293,4,13,59719
1336339827,5804,440.4400024414062500,8.1312999725341800,34.1358985900878900,123.5486984252929700,552.2416992187500000,8.1166267395019530,43.5854492187500000,51,112,86,80,79,15278,2147744960,2147423917,2147999835,2147877101,2147625609,2147087286,2148240164,2147206070,904,4,13,46714
1336339942,5807,428.5100097656250000,8.2070999145507810,34.1272010803222660,130.2447967529297000,549.3325805664062000,8.2093276977539060,42.9187889099121100,51,111,89,81,77,15275,2147744018,2147420187,2148000411,2147874550,2147623140,2147087122,2148234038,2147207963,1201,4,13,17773
1336340073,5809,417.1700134277344000,8.5648002624511720,34.1262016296386700,140.8433074951172000,537.9732055664062000,8.5706405639648440,41.7939414978027340,51,111,90,81,77,15279,2147742701,2147421924,2148000045,2147873206,2147622473,2147096347,2148236059,2147205723,2223,4,13,64514
1336340206,5807,406.8299865722656000,8.9707002639770500,34.1185989379882800,157.5343017578125000,525.3521728515625000,8.9708824157714840,40.2138290405273440,50,112,91,81,76,15277,2147742610,2147418002,2147999634,2147872896,2147620379,2147093869,2148235401,2147206628,2763,4,13,2929
1336340348,5811,395.6199951171875000,9.4275999069213870,34.1288986206054700,165.1470947265625000,511.6738891601562500,9.4032897949218750,39.3964881896972660,50,111,90,82,75,15275,2147741568,2147417444,2147999606,2147874331,2147618267,2147096923,2148230646,2147203757,118,4,14,60969
1336340479,5808,384.8200073242187500,9.6752004623413090,34.1402015686035160,168.9234924316406200,503.2471923828125000,9.6689987182617190,38.9720497131347660,49,115,91,82,75,15276,2147742546,2147421193,2147999286,2147876333,2147614080,2147103113,2148230838,2147211986,754,4,13,44613
1336340613,5805,373.4599914550781000,9.8709001541137700,34.1459999084472660,173.9821014404297000,497.1307067871094000,9.8615474700927730,38.5021095275878900,50,113,91,81,74,15274,2147738724,2147424393,2147999789,2147874349,2147615488,2147109878,2148227803,2147209225,1206,3,14,13718
1336340744,5812,362.6400146484375000,10.0367002487182620,34.1516990661621100,177.1537017822265600,489.9594116210937500,10.0869798660278320,38.1562309265136700,49,111,91,82,74,15275,2147736731,2147423762,2148002011,2147873572,2147617325,2147106139,2148221997,2147206866,81,4,13,27383
1336340888,5808,351.3999938964844000,10.4237003326416020,34.1589012145996100,185.1309051513672000,479.7319030761719000,10.4078798294067380,37.4382591247558600,49,111,91,82,73,15277,2147739126,2147420882,2148003300,2147875812,2147614518,2147107858,2148224384,2147209764,2270,3,14,16384
1336341041,5809,341.0499877929687500,10.7522001266479500,34.1684989929199200,191.0906066894531200,469.1099853515625000,10.7404499053955080,36.8687400817871100,49,111,89,81,73,15275,2147734509,2147422500,2148004544,2147872996,2147607378,2147111844,2148222354,2147210285,1664,4,14,32208
1336341213,5812,327.8200073242187500,11.0318002700805660,34.1777000427246100,194.8699951171875000,457.9814147949219000,11.0881395339965820,36.4426307678222660,49,110,88,80,71,15276,2147736274,2147422208,2148002934,2147874678,2147610614,2147114889,2148221641,2147211218,2079,3,14,49396
1336341333,5808,317.1900024414062500,11.7365999221801760,34.2010002136230500,198.7935943603515600,437.9079895019531000,11.7134599685668950,35.8709602355957000,48,109,91,81,72,15276,2147732836,2147424109,2148011190,2147872868,2147606345,2147117110,2148222381,2147211108,2013,3,13,52557
1336341466,5805,306.4800109863281000,11.9870996475219730,34.2178001403808600,200.4613037109375000,428.1582946777344000,12.0163898468017580,35.6120185852050800,49,106,89,80,73,15276,2147730121,2147426779,2148014162,2147876288,2147602331,2147120192,2148223872,2147210806,747,3,14,16662
1336341608,5808,295.0599975585937500,12.3993997573852540,34.2416992187500000,200.5419006347656200,415.4104003906250000,12.4117498397827150,35.4040107727050800,49,107,91,80,71,15276,2147730678,2147426404,2148024493,2147874907,2147600713,2147121426,2148222025,2147211785,3205,3,14,25513
1336341739,5803,284.1199951171875000,12.6792001724243160,34.2462997436523440,197.5097961425781200,405.2420959472656000,12.7265501022338870,35.4291000366210940,49,107,89,82,71,15272,2147728905,2147429302,2148037037,2147871469,2147602825,2147128219,2148228370,2147210770,750,3,14,9854
1336341884,5809,274.1700134277344000,13.3162002563476560,34.2911987304687500,194.6437072753906200,386.1257019042969000,13.3171195983886720,35.3079299926757800,50,106,88,81,71,15276,2147727332,2147434349,2148044297,2147876918,2147600512,2147134811,2148228388,2147209709,3382,3,14,29494
1336342081,5809,263.5799865722656000,14.1562004089355470,34.3289985656738300,199.6374053955078000,359.1010131835937500,14.1495399475097660,34.5837097167968750,49,108,92,81,70,15279,2147723986,2147445769,2148065042,2147872246,2147593737,2147139501,2148235904,2147213924,2769,3,14,42287
1336342246,5808,251.5599975585937500,15.3044004440307620,34.4275016784668000,194.2834014892578000,323.0968933105469000,15.2548503875732420,34.3686103820800800,49,106,91,80,69,15275,2147721627,2147452562,2148104923,2147872822,2147588854,2147153462,2148252900,2147213421,664,4,14,37427
1336342388,5808,240.7700042724609400,15.9853000640869140,34.4866981506347660,194.9875030517578000,299.3819885253906000,15.9811000823974610,33.9734497070312500,50,110,89,80,68,15266,2147721033,2147470683,2148151798,2147871835,2147585718,2147171501,2148267136,2147217892,2443,3,15,55079
1336342530,5810,229.6300048828125000,16.5522003173828120,34.5651016235351560,199.1495971679687500,280.2380981445312500,16.5666198730468750,33.4414787292480500,51,108,87,82,67,15266,2147723090,2147503030,2148224256,2147871917,2147584923,2147191890,2148298587,2147223387,2681,3,14,3821
1336342661,5807,218.7500000000000000,17.2113990783691400,34.6334991455078100,200.9284973144531200,259.4419860839844000,17.2021293640136720,33.0365715026855500,52,108,91,82,67,15266,2147728393,2147550656,2148330477,2147870948,2147584576,2147218066,2148342665,2147226861,1687,2,14,9523
1336342794,5808,207.1900024414062500,18.0412998199462900,34.7324981689453100,203.9042968750000000,232.4756927490234400,18.0257396697998050,32.4817810058593750,55,110,89,80,67,15261,2147742674,2147637348,2148496612,2147873042,2147586441,2147272457,2148419236,2147227620,896,3,15,64495
1336342903,5806,197.9199981689453000,18.7444992065429700,34.8195991516113300,207.0346069335937500,209.3950958251953000,18.7306003570556640,31.9828796386718750,62,111,91,81,66,15254,2147771117,2147730998,2148681856,2147876233,2147592411,2147326491,2148503104,2147238354,1573,3,15,39979
1336342957,5812,193.6199951171875000,18.8470993041992200,34.8368988037109400,208.8204956054687500,205.9010009765625000,18.8373298645019530,31.8352699279785160,61,115,91,82,66,15253,2147787419,2147787190,2148788827,2147878473,2147596425,2147363648,2148548571,2147241051,1688,3,15,62033
1336343011,5811,189.1199951171875000,18.8833007812500000,34.8384017944335940,209.3652954101562500,203.7227020263672000,18.9038600921630860,31.7751502990722660,63,111,90,82,66,15251,2147806573,2147851620,2148903808,2147879049,2147605312,2147401856,2148603136,2147246299,2377,3,16,36909
1336343085,5810,183.3099975585937500,19.1942996978759770,34.8656005859375000,209.3013000488281200,194.3417968750000000,19.1904506683349600,31.6498508453369140,65,115,91,81,66,15247,2147849408,2147957549,2149098102,2147877101,2147619547,2147457737,2148690742,2147251977,2901,2,15,34449
1336343139,5810,179.4100036621093800,19.2656002044677730,34.8707008361816400,209.4998931884765600,191.0173034667968800,19.2920303344726560,31.5937004089355470,68,113,88,81,66,15247,2147885622,2148047817,2149249609,2147876434,2147632109,2147504996,2148755712,2147256292,2223,2,16,29104
1336343193,5809,175.5399932861328000,19.6464996337890620,34.9449005126953100,210.1233978271484400,180.6127014160156200,19.6100196838378900,31.4179306030273440,69,112,92,82,65,15248,2147927753,2148149586,2149417782,2147878637,2147647680,2147560640,2148838546,2147261650,2263,3,15,52962
1336343247,5809,171.7599945068359400,19.9815998077392580,35.0046997070312500,211.3995056152343800,169.0243072509765600,19.9643497467041000,31.1914691925048830,75,114,89,81,65,15240,2147976347,2148259373,2149606701,2147879122,2147670509,2147614592,2148917083,2147268406,3091,2,16,22400
1336343301,5813,168.4499969482422000,20.1963005065917970,35.0275001525878900,212.2962951660156200,160.0417022705078000,20.2391490936279300,31.0225296020507800,80,115,93,82,64,15237,2148033261,2148379099,2149797586,2147879533,2147687780,2147678006,2148996004,2147276297,47,2,14,21184
1336343389,5810,163.9100036621093800,20.3887996673584000,34.9809989929199200,214.2073059082031200,155.4667968750000000,20.3791599273681640,30.8593807220459000,83,115,91,81,66,15231,2148123172,2148550674,2150082569,2147884909,2147719405,2147763995,2149116918,2147285686,2265,3,16,4769
1336343498,5807,159.6999969482422000,20.8061008453369140,34.9948005676269500,215.0099029541015600,142.5294036865234400,20.7753200531005860,30.6447601318359380,88,118,92,83,65,15227,2148226240,2148756498,2150413293,2147887131,2147759990,2147865216,2149258377,2147295881,1638,2,16,18580
1336343607,5804,156.0399932861328000,20.8631000518798830,34.9981002807617200,216.1483001708984400,139.9497985839843800,20.8543491363525400,30.5510902404785160,90,120,90,83,65,15225,2148352100,2148985280,2150767049,2147888850,2147807652,2147991625,2149416192,2147309430,784,2,16,44051
1336343735,5811,152.2100067138672000,21.1434993743896500,35.0065002441406250,217.1761016845703000,131.1497039794922000,21.1240901947021500,30.3814792633056640,93,118,91,81,63,15225,2148548269,2149290441,2151194514,2147891547,2147882002,2148145974,2149597211,2147327296,600,2,15,42297
1336344043,5811,148.0800018310547000,21.7085990905761720,35.0392990112304700,221.2891998291015600,112.6430969238281200,21.6919994354248050,29.9290904998779300,108,120,94,84,64,15197,2149050971,2149980827,2152096210,2147899602,2148081600,2148446363,2149928667,2147356452,2607,2,15,29781
1336344152,5808,143.4299926757812500,21.8372993469238280,35.0463981628418000,222.9739074707031200,108.1251983642578100,21.8307895660400400,29.7860794067382800,113,121,91,83,64,15189,2149558866,2150709376,2153095296,2147911451,2148282468,2148777929,2150312182,2147390802,1484,2,16,23567
1336344228,5808,139.1999969482422000,21.9922008514404300,35.0517997741699200,223.5462951660156200,103.4086990356445300,21.9757499694824220,29.6965904235839840,117,122,92,81,63,15188,2150097700,2151483766,2154136941,2147923154,2148493010,2149116434,2150708699,2147424374,1198,2,16,59665
1336344306,5808,134.6199951171875000,22.1133995056152340,35.0569992065429700,224.6900024414062500,99.5785827636718800,22.0935192108154300,29.5903892517089840,118,125,91,84,64,15179,2150841920,2152481837,2155425709,2147942701,2148793874,2149563629,2151217773,2147472905,796,2,15,3472
1336344360,5812,131.2100067138672000,22.1716995239257800,35.0652008056640600,225.0587005615234400,95.5590133666992200,22.2171707153320300,29.5205097198486330,121,122,90,82,64,15172,2151533440,2153369901,2156538697,2147961225,2149069677,2149964873,2151650130,2147509458,236,2,15,33468
1336344425,5809,127.7099990844726600,22.4088001251220700,35.0819015502929700,226.3558044433593800,89.0607910156250000,22.4171791076660160,29.3736190795898440,132,123,94,83,62,15158,2152392859,2154452964,2157849472,2147981933,2149423579,2150427830,2152146989,2147556516,2505,2,16,58891
1336344523,5808,123.7699966430664000,22.7296009063720700,35.0894012451171900,228.1582946777343800,78.2325134277343800,22.7508201599121100,29.1480293273925780,133,127,96,85,64,15140,2153831460,2156275904,2160030098,2148017545,2150014637,2151165229,2152937718,2147630217,2632,2,17,12755
1336344645,5803,120.2600021362304700,22.9967994689941400,35.0965003967285160,231.3762969970703000,71.0635604858398400,22.9719505310058600,28.9035205841064450,145,130,93,85,63,15130,2155459858,2158289033,2162250285,2148053878,2150721316,2152014290,2153771620,2147715876,3506,2,16,8616
1336344831,5808,116.3899993896484400,23.1403007507324220,35.1010017395019500,234.1401977539062500,65.8806381225586000,23.1319503784179700,28.7084407806396500,149,127,90,85,62,15124,2157921536,2161315776,2165450605,2148112941,2151833554,2153279689,2155012964,2147840978,1027,2,16,34718
1336344985,5808,111.5199966430664000,23.3444004058837900,35.0998001098632800,235.3908996582031200,58.9205818176269500,23.3470001220703120,28.5628890991210940,114,122,92,84,61,15146,2161776758,2166046299,2170317869,2148215433,2153681792,2155382336,2156998912,2148035538,176,2,16,13118
1336345072,5812,107.6600036621093800,23.4372997283935550,35.1012001037597660,236.1367950439453000,56.1667404174804700,23.4321403503417970,28.4940109252929700,106,124,93,83,61,15150,2165026633,2169938742,2174202066,2148318701,2155446482,2157419337,2158834048,2148210998,2915,2,16,24479
1336345159,5809,103.1299972534179700,23.5139999389648440,35.1012992858886700,236.4387969970703000,53.6760902404785160,23.5091800689697270,28.4489707946777340,99,122,93,84,60,15154,2169489910,2175179611,2179325650,2148480804,2157879350,2160209051,2161324589,2148462592,2563,2,16,35752
1336345227,5810,99.4199981689453100,23.5953998565673830,35.0997009277343750,236.9156036376953000,51.3216400146484400,23.5820198059082030,28.3977394104003900,89,122,93,84,62,15156,2173600978,2179877074,2183847085,2148648009,2160232914,2162848786,2163602733,2148690550,2575,2,16,235
1336345281,5809,96.6999969482421900,23.6140003204345700,35.0985984802246100,237.4031066894531200,50.4967994689941400,23.6075496673584000,28.3651599884033200,89,122,90,84,60,15157,2177168109,2183845632,2187515282,2148803181,2162346002,2165233481,2165613330,2148891840,2592,1,16,43733
1336345335,5807,94.1900024414062500,23.6828002929687500,35.0926017761230500,237.3549957275390600,48.3947181701660160,23.6726207733154300,28.3412303924560550,86,124,90,85,60,15164,2180656064,2187645961,2190999497,2148947995,2164429869,2167515721,2167480393,2149082240,2722,2,16,44707
1336345389,5805,92.1500015258789000,23.7717990875244140,35.0884017944335940,237.5664978027343800,45.4681892395019500,23.7632408142089840,28.2949295043945300,82,124,93,84,59,15159,2183177938,2190137435,2192990976,2149091190,2166244845,2169438354,2168994176,2149238354,2661,1,16,52036
1336345443,5806,90.7600021362304700,23.8397006988525400,35.0863990783691400,237.9541015625000000,43.3111305236816400,23.8300704956054700,28.2504596710205080,79,125,89,83,61,15164,2185850642,2193090843,2195726226,2149199314,2168039488,2171417179,2170575131,2149392201,2227,2,16,11952
1336345542,5806,88.6200027465820300,23.9136009216308600,35.0801010131835940,239.4844970703125000,40.8095588684082000,23.9075908660888670,28.1501808166503900,76,128,93,86,59,15153,2190628096,2198066706,2200070665,2149451894,2171852992,2175495926,2173627648,2149689517,1852,2,16,52536
1336345596,5803,86.6399993896484400,23.9731998443603500,35.0647010803222660,240.1649932861328000,39.0887718200683600,23.9609298706054700,28.0983390808105470,75,126,91,86,60,15158,2194909220,2202732571,2204335012,2149705974,2175189440,2178950016,2176212781,2149945920,2250,2,17,53150
1336345650,5808,84.5100021362304700,23.9701004028320300,35.0498008728027340,241.9398040771484400,38.8950195312500000,23.9669399261474600,28.0166492462158200,73,130,97,86,59,15150,2198742171,2206827373,2207949065,2149958985,2178822400,2182514998,2178672256,2150177874,2518,2,16,54057
1336345704,5808,82.1500015258789000,23.9983005523681640,35.0444984436035160,243.1988067626953000,37.9424285888671900,23.9964809417724600,27.9491291046142580,71,129,93,85,59,15149,2203742912,2212212992,2212933357,2150363675,2183756708,2187556516,2182483218,2150548818,2816,2,16,7874
1336345758,5810,79.5400009155273400,24.0849990844726560,35.0358009338378900,243.0722045898437500,35.2554702758789060,24.0798206329345700,27.9214591979980470,69,129,96,86,60,15135,2210309961,2219324233,2219557522,2150837906,2189342820,2193226340,2186598857,2150976877,2591,1,16,36270
1336345812,5808,76.9400024414062500,24.1462001800537100,35.0161018371582000,242.7846069335937500,33.3269691467285160,24.1396503448486330,27.9103202819824220,71,131,92,86,59,15138,2217351963,2226817325,2226539840,2151477046,2195507008,2199635739,2191381805,2151508562,1878,2,17,62659
1336345869,5806,74.3799972534179700,24.1783008575439450,35.0032005310058600,243.1618041992187500,32.2387619018554700,24.1734294891357420,27.8802890777587900,69,130,97,87,61,15121,2222047433,2231424749,2230577901,2151942217,2200326500,2204371904,2194712923,2151848274,1509,2,16,10111
1336345923,5806,72.2699966430664000,24.1832008361816400,35.0010986328125000,243.2749938964843800,31.8889408111572270,24.1842899322509770,27.8710594177246100,69,129,93,86,58,15124,2227684736,2237340022,2236192420,2152682496,2205657764,2209715291,2198676260,2152322166,1409,2,16,44760
1336345977,5809,70.2500000000000000,24.1954994201660160,34.9972000122070300,243.5135040283203000,31.4085102081298830,24.1991996765136720,27.8546295166015620,68,132,93,86,58,15128,2232797860,2242308900,2240462509,2153227181,2210673435,2214553462,2202057316,2152699373,1150,2,16,39380
1336346031,5809,68.4199981689453100,24.2217998504638670,34.9859008789062500,243.8070983886718800,30.6118907928466800,24.2239303588867200,27.8318405151367200,67,129,91,86,59,15126,2238786459,2248679478,2246600493,2153985234,2216046308,2219801901,2205868690,2153153325,537,2,16,4871
1336346085,5809,66.8099975585937500,24.2495002746582030,34.9631004333496100,243.8309020996093800,29.6922397613525400,24.2524795532226560,27.8192901611328120,65,128,95,85,59,15123,2243686564,2254168667,2252082422,2154621257,2220835401,2224639488,2209372562,2153574500,328,2,16,14091
1336346150,5808,65.3600006103515600,24.2588005065917970,34.9536018371582000,243.9313049316406200,29.2935390472412100,24.2648601531982420,27.8101902008056640,63,126,96,85,58,15125,2248956854,2259731693,2257385956,2155418587,2225714267,2229337005,2212539565,2153939693,770,2,16,47703
1336346249,5806,62.8100013732910160,24.2621002197265620,34.9375991821289060,244.2135009765625000,29.2570495605468750,24.2660007476806640,27.7972297668457030,61,130,94,86,58,15129,2256150409,2266615341,2263321554,2156778368,2237869266,2240913069,2220260141,2154835264,926,1,16,52094
1336346303,5807,60.7900009155273440,24.2901000976562500,34.9338989257812500,244.0939941406250000,28.3022899627685550,24.2956504821777340,27.7907199859619140,59,125,94,85,59,15129,2263485302,2274454345,2271048356,2158077302,2246907053,2249279670,2225700452,2155487076,674,2,16,34850
1336346357,5807,58.7900009155273440,24.3265991210937500,34.9331016540527340,244.0820007324218800,27.2838096618652340,24.3272800445556640,27.7786293029785160,58,125,95,88,60,15131,2270968018,2282112667,2278336621,2159510966,2258333650,2260318061,2233197769,2156472146,774,2,16,26968
1336346411,5806,56.8300018310546900,24.3339996337890620,34.9319000244140600,244.0149993896484400,26.7618808746337900,24.3435001373291000,27.7752990722656250,58,124,94,85,58,15126,2278397257,2289798674,2285638720,2161129060,2268117266,2269240896,2238844114,2157167204,681,2,16,11277
1336346465,5809,54.9000015258789060,24.3638000488281250,34.9331016540527340,243.9031066894531200,25.9590606689453120,24.3684406280517580,27.7703495025634770,57,123,92,85,57,15137,2283374299,2294791552,2290708306,2162787218,2278029321,2278295881,2244425316,2157943085,835,2,16,54307
1336346543,5807,51.5499992370605500,24.3801002502441400,34.9325981140136700,243.8712005615234400,25.4373302459716800,24.3846492767334000,27.7651996612548830,56,124,97,85,55,15133,2299488832,2311743698,2307339200,2167418258,2299908013,2298283821,2257286390,2159886235,1128,2,16,45067
1336346597,5808,48.5800018310546900,24.3866996765136720,34.9339981079101560,243.9768981933593800,25.2191905975341800,24.3914299011230470,27.7579402923584000,56,122,93,86,58,15127,2315320173,2328925805,2324835410,2172026834,2321991625,2318812333,2270764763,2161969737,1206,2,16,17001
1336346651,5807,45.5900001525878900,24.3885993957519530,34.9342994689941400,244.0729064941406200,25.0679302215576170,24.3961296081542970,27.7518501281738280,56,123,94,85,50,15127,2333617334,2348511652,2344688292,2178032749,2346161718,2341554294,2285732608,2164255862,1161,2,16,39690
1336346705,5809,42.5600013732910160,24.3932991027832030,34.9347000122070300,243.9895019531250000,24.8601207733154300,24.4025897979736330,27.7528190612792970,54,124,92,85,57,15125,2259156525,2262207405,2255103780,2164975698,2279150317,2270076480,2230820525,2157328768,1051,2,16,39311
1336346759,5810,39.4799995422363300,24.4004001617431640,34.9331016540527340,243.9790039062500000,24.6330394744873050,24.4096393585205080,27.7505493164062500,53,122,95,84,55,15121,2371917641,2389249718,2387222134,2195485293,2403878253,2395417526,2322162285,2171250971,986,2,16,14219
1336346813,5807,36.3800010681152340,24.4074001312255860,34.9345016479492200,244.1607971191406200,24.3165607452392580,24.4194793701171880,27.7387504577636720,53,120,92,84,59,15128,2392418185,2409832768,2407201883,2205343862,2431722532,2420709997,2338713901,2174947181,1095,1,16,39383
1336346870,5808,33.0900001525878900,24.4137001037597660,34.9337005615234400,244.0677032470703000,24.0932102203369140,24.4264202117919920,27.7400302886962900,53,121,93,86,60,15129,2410983808,2430270601,2431113554,2222316004,2460191835,2446261284,2355304374,2179571245,1118,1,17,9691
1336346924,5808,29.9500007629394530,24.4272994995117200,34.9328002929687500,244.2700958251953000,23.5821990966796880,24.4423007965087900,27.7248497009277340,52,122,91,85,63,15130,2422699419,2439960777,2439535149,2232833563,2486261595,2468110528,2368492169,2182671826,968,2,16,10520
1336346978,5810,26.8600006103515620,24.4372997283935550,34.9268989562988300,244.2071990966797000,23.1546802520751950,24.4555892944335940,27.7224998474121100,51,119,92,85,56,15130,2417843126,2433100416,2433520466,2242929755,2486886875,2464096923,2363678464,2183633691,574,1,16,42757
1336347032,5809,23.7999992370605470,24.4479007720947270,34.9248008728027340,244.2100982666015600,22.7966899871826170,24.4667205810546880,27.7178707122802730,51,119,95,84,59,15137,2486463369,2512692425,2521474688,2292660525,2565451520,2540312896,2419513673,2199589312,94,2,16,49461
